Change the Weather History Date:

Sunday, October 14, 2012

  Actual Average Record
Temperature  
Mean Temperature 62 °F 62 °F  
Max Temperature 78 °F 78 °F 90 °F (1968)
Min Temperature 43 °F 46 °F 30 °F (1986)
Degree Days  
Heating Degree Days 4    
Growing Degree Days 12 (Base 50)    
Moisture  
Dew Point 29 °F    
Average Humidity 32    
Maximum Humidity 49    
Minimum Humidity 15    
Precipitation  
Precipitation 0.00 in 0.04 in 0.68 in (1958)
Month to date precipitation 0.04 0.56  
Year to date precipitation 3.75 9.45  
Sea Level Pressure  
Sea Level Pressure 30.06 in    
Wind  
Wind Speed 8 mph (ENE)    
Max Wind Speed 20 mph    
Max Gust Speed 26 mph    
Visibility 10 miles    
Events      
T = Trace of Precipitation, MM = Missing Value Source: NWS Daily Summary

Daily Weather History Graph

Daily Weather History Graph

Search for Another Location

Airport or City:

Trip Planner

Search our weather history database for the weather conditions in past years. The results will help you decide how hot, cold, wet, or windy it might be!

Date:

Astronomy

Oct. 14, 2012 Rise Set
Actual Time 7:14 AM MDT 6:38 PM MDT
Civil Twilight 6:49 AM MDT 7:03 PM MDT
Nautical Twilight 6:21 AM MDT 7:31 PM MDT
Astronomical Twilight 5:52 AM MDT 8:00 PM MDT
Moon 6:17 AM MDT (10/14) 6:01 PM MDT (10/14)
Length of Visible Light 12h 13m
Length of Day
11h 24m
Waning Crescent, 1% of the Moon is Illuminated
Oct 14
Waning Crescent
Oct 15
New
Oct 21
First Quarter
Oct 29
Full
Nov 6
Last Quarter

Hourly Weather History & Observations

Time (MDT) Temp. Windchill Dew Point Humidity Pressure Visibility Wind Dir Wind Speed Gust Speed Precip Events Conditions
12:53 AM 48.0 °F - 27.0 °F 44% 30.03 in 10.0 mi NW 4.6 mph - N/A   Clear
1:53 AM 46.0 °F 44.8 °F 28.0 °F 50% 30.05 in 10.0 mi West 3.5 mph - N/A   Clear
2:53 AM 45.0 °F 43.5 °F 27.0 °F 49% 30.06 in 10.0 mi WNW 3.5 mph - N/A   Clear
3:53 AM 46.0 °F 44.8 °F 27.0 °F 47% 30.04 in 10.0 mi NE 3.5 mph - N/A   Clear
4:53 AM 57.0 °F - 30.0 °F 36% 30.03 in 10.0 mi NNE 10.4 mph - N/A   Clear
5:53 AM 55.9 °F - 30.9 °F 39% 30.05 in 10.0 mi NE 10.4 mph - N/A   Clear
6:53 AM 55.9 °F - 30.9 °F 39% 30.09 in 10.0 mi NE 8.1 mph - N/A   Clear
7:53 AM 60.1 °F - 33.1 °F 36% 30.10 in 10.0 mi ENE 12.7 mph 19.6 mph N/A   Clear
8:53 AM 63.0 °F - 33.1 °F 33% 30.13 in 10.0 mi ENE 18.4 mph 23.0 mph N/A   Clear
9:53 AM 66.0 °F - 34.0 °F 30% 30.15 in 10.0 mi ENE 13.8 mph 24.2 mph N/A   Clear
10:53 AM 70.0 °F - 34.0 °F 27% 30.14 in 10.0 mi NE 15.0 mph - N/A   Clear
11:53 AM 73.0 °F - 34.0 °F 24% 30.13 in 10.0 mi East 11.5 mph 18.4 mph N/A   Clear
12:53 PM 75.0 °F - 33.1 °F 22% 30.10 in 10.0 mi ESE 13.8 mph 25.3 mph N/A   Clear
2:53 PM 77.0 °F - 28.9 °F 17% 30.05 in 10.0 mi ESE 9.2 mph - N/A   Clear
3:53 PM 78.1 °F - 28.0 °F 16% 30.03 in 10.0 mi ESE 13.8 mph 19.6 mph N/A   Clear
4:53 PM 77.0 °F - 27.0 °F 16% 29.99 in 10.0 mi East 10.4 mph - N/A   Clear
5:53 PM 75.0 °F - 27.0 °F 17% 29.99 in 10.0 mi East 10.4 mph - N/A   Clear
6:53 PM 68.0 °F - 26.1 °F 21% 30.02 in 10.0 mi East 5.8 mph - N/A   Clear
7:53 PM 64.0 °F - 28.0 °F 26% 30.03 in 10.0 mi East 6.9 mph - N/A   Clear
8:53 PM 57.9 °F - 28.0 °F 32% 30.06 in 10.0 mi Variable 3.5 mph - N/A   Clear
9:53 PM 55.9 °F - 27.0 °F 33% 30.06 in 10.0 mi Calm Calm - N/A   Clear
10:53 PM 55.0 °F - 26.1 °F 33% 30.06 in 10.0 mi NE 6.9 mph - N/A   Clear
11:53 PM 53.1 °F - 26.1 °F 35% 30.07 in 10.0 mi NE 8.1 mph - N/A   Clear